| time (UTC) | temp F | wind direction | speed knots | gust knots | rain 1hr in | rain 24hr in | rain mn in | humidity % | barometer mb |
| 20260506201521 | 63 | 15 | 1.7 | 6.1 | 0.00 | 0.00 | 0.00 | 57 | 1016.5 |
| 20260506200019 | 63 | 34 | 0.9 | 8.7 | 0.00 | 0.00 | 0.00 | 56 | 1016.5 |
| 20260506194519 | 63 | 132 | 1.7 | 7.8 | 0.00 | 0.00 | 0.00 | 55 | 1016.5 |
| 20260506193016 | 62 | 42 | 1.7 | 6.1 | 0.00 | 0.00 | 0.00 | 57 | 1016.5 |
| 20260506191514 | 62 | 80 | 1.7 | 7.0 | 0.00 | 0.00 | 0.00 | 57 | 1016.7 |
| 20260506190013 | 62 | 5 | 1.7 | 6.1 | 0.00 | 0.00 | 0.00 | 57 | 1016.7 |
| 20260506184510 | 61 | 123 | 1.7 | 7.8 | 0.00 | 0.00 | 0.00 | 57 | 1016.8 |
| 20260506183008 | 60 | 104 | 1.7 | 7.0 | 0.00 | 0.00 | 0.00 | 60 | 1017.3 |
| 20260506181505 | 60 | 82 | 0.9 | 6.1 | 0.00 | 0.00 | 0.00 | 60 | 1017.7 |
| 20260506180005 | 59 | 146 | 2.6 | 8.7 | 0.00 | 0.00 | 0.00 | 62 | 1017.9 |
| 20260506174504 | 59 | 136 | 1.7 | 6.1 | 0.00 | 0.00 | 0.00 | 63 | 1018.0 |
| 20260506173002 | 59 | 344 | 2.6 | 10.4 | 0.00 | 0.00 | 0.00 | 62 | 1018.3 |
| 20260506171501 | 57 | 133 | 1.7 | 7.0 | 0.00 | 0.00 | 0.00 | 63 | 1018.1 |
| 20260506170000 | 59 | 59 | 2.6 | 7.0 | 0.00 | 0.00 | 0.00 | 61 | 1018.3 |
| 20260506164606 | 56 | 35 | 2.6 | 6.1 | 0.00 | 0.00 | 0.00 | 64 | 1018.3 |
| 20260506163114 | 55 | 103 | 1.7 | 7.8 | 0.00 | 0.00 | 0.00 | 66 | 1018.5 |
| 20260506161601 | 55 | 13 | 2.6 | 6.1 | 0.00 | 0.00 | 0.00 | 67 | 1018.7 |
| 20260506160052 | 54 | 127 | 1.7 | 8.7 | 0.00 | 0.00 | 0.00 | 68 | 1018.6 |
| 20260506154607 | 53 | 178 | 1.7 | 8.7 | 0.00 | 0.00 | 0.00 | 69 | 1018.4 |
| 20260506153054 | 53 | 34 | 2.6 | 7.0 | 0.00 | 0.00 | 0.00 | 69 | 1018.2 |
| 20260506151547 | 53 | 360 | 1.7 | 7.8 | 0.00 | 0.00 | 0.00 | 70 | 1017.9 |
| 20260506150041 | 52 | 360 | 2.6 | 7.0 | 0.00 | 0.00 | 0.00 | 73 | 1017.8 |
| 20260506144537 | 50 | 18 | 1.7 | 8.7 | 0.00 | 0.00 | 0.00 | 76 | 1017.0 |
| 20260506143046 | 50 | 28 | 0.9 | 7.0 | 0.00 | 0.00 | 0.00 | 78 | 1016.7 |
| 20260506141536 | 50 | 26 | 0.9 | 8.7 | 0.00 | 0.00 | 0.00 | 79 | 1016.8 |
| 20260506140031 | 49 | 107 | 1.7 | 7.8 | 0.00 | 0.00 | 0.00 | 79 | 1017.0 |
| 20260506134530 | 49 | 341 | 1.7 | 7.8 | 0.00 | 0.00 | 0.00 | 80 | 1017.0 |
| 20260506133027 | 48 | 69 | 0.0 | 7.0 | 0.00 | 0.00 | 0.00 | 80 | 1017.2 |
| 20260506131526 | 48 | 32 | 0.0 | 8.7 | 0.00 | 0.00 | 0.00 | 80 | 1017.1 |
| 20260506130026 | 48 | 29 | 1.7 | 7.0 | 0.00 | 0.00 | 0.00 | 80 | 1016.6 |
| 20260506124518 | 48 | 40 | 0.9 | 5.2 | 0.00 | 0.00 | 0.00 | 79 | 1016.4 |
| 20260506123016 | 48 | 65 | 1.7 | 7.0 | 0.00 | 0.00 | 0.00 | 79 | 1015.8 |
| 20260506121513 | 48 | 286 | 0.9 | 4.3 | 0.00 | 0.00 | 0.00 | 79 | 1015.7 |
| 20260506120013 | 48 | 39 | 0.0 | 5.2 | 0.00 | 0.00 | 0.00 | 78 | 1015.8 |
| 20260506114511 | 48 | 30 | 0.9 | 5.2 | 0.00 | 0.00 | 0.00 | 78 | 1015.4 |
| 20260506113008 | 48 | 11 | 0.0 | 5.2 | 0.00 | 0.00 | 0.00 | 77 | 1015.0 |
| 20260506111508 | 48 | 31 | 1.7 | 7.8 | 0.00 | 0.00 | 0.00 | 77 | 1015.2 |
| 20260506110006 | 48 | 28 | 0.9 | 7.0 | 0.00 | 0.00 | 0.00 | 77 | 1015.1 |
| 20260506104503 | 48 | 25 | 1.7 | 6.1 | 0.00 | 0.00 | 0.00 | 76 | 1015.4 |
| 20260506103003 | 48 | 60 | 0.9 | 5.2 | 0.00 | 0.00 | 0.00 | 76 | 1015.1 |
| 20260506101502 | 48 | 28 | 1.7 | 7.0 | 0.00 | 0.00 | 0.00 | 75 | 1015.1 |
| 20260506100100 | 48 | 35 | 0.0 | 4.3 | 0.00 | 0.00 | 0.00 | 75 | 1015.0 |
| 20260506094622 | 49 | 5 | 1.7 | 8.7 | 0.00 | 0.00 | 0.00 | 75 | 1014.9 |
| 20260506093057 | 49 | 22 | 1.7 | 7.0 | 0.00 | 0.00 | 0.00 | 75 | 1014.8 |
| 20260506091554 | 49 | 31 | 1.7 | 8.7 | 0.00 | 0.00 | 0.00 | 75 | 1014.5 |
| 20260506090051 | 49 | 31 | 0.9 | 5.2 | 0.00 | 0.00 | 0.00 | 75 | 1014.1 |
| 20260506084550 | 49 | 329 | 1.7 | 7.8 | 0.00 | 0.00 | 0.00 | 75 | 1014.2 |
| 20260506083049 | 49 | 355 | 0.9 | 7.0 | 0.00 | 0.00 | 0.00 | 75 | 1013.9 |
| 20260506081546 | 49 | 21 | 1.7 | 7.0 | 0.00 | 0.00 | 0.00 | 75 | 1013.1 |
| 20260506073045 | 49 | 36 | 0.9 | 7.0 | 0.00 | 0.00 | 0.00 | 74 | 1012.0 |
| 20260506071539 | 49 | 40 | 1.7 | 6.1 | 0.00 | 0.00 | 0.00 | 74 | 1012.4 |
| 20260506061536 | 49 | 87 | 0.0 | 3.5 | 0.00 | 0.00 | 0.00 | 76 | 1012.7 |
| 20260506044533 | 49 | 41 | 0.0 | 3.5 | 0.00 | 0.00 | 0.00 | 82 | 1012.6 |
| 20260506043022 | 49 | 34 | 0.9 | 5.2 | 0.00 | 0.00 | 0.00 | 81 | 1012.5 |
| 20260506041520 | 49 | 74 | 0.9 | 7.8 | 0.00 | 0.00 | 0.00 | 81 | 1012.5 |
| 20260506040042 | 49 | 52 | 1.7 | 7.8 | 0.00 | 0.00 | 0.00 | 83 | 1012.4 |
| 20260506034516 | 49 | 94 | 0.9 | 4.3 | 0.00 | 0.00 | 0.00 | 83 | 1012.3 |
| 20260506033015 | 49 | 67 | 0.0 | 6.1 | 0.00 | 0.00 | 0.00 | 83 | 1012.2 |
| 20260506031529 | 49 | 100 | 0.9 | 7.0 | 0.00 | 0.00 | 0.00 | 83 | 1011.9 |
| 20260506030013 | 49 | 59 | 0.9 | 5.2 | 0.00 | 0.00 | 0.00 | 82 | 1011.8 |
| 20260506024517 | 49 | 96 | 1.7 | 7.8 | 0.00 | 0.00 | 0.00 | 82 | 1011.3 |
| 20260506023010 | 49 | 26 | 1.7 | 7.8 | 0.00 | 0.00 | 0.00 | 82 | 1010.9 |
| 20260506021509 | 50 | 42 | 3.5 | 9.6 | 0.00 | 0.00 | 0.00 | 82 | 1011.1 |
| 20260506020003 | 50 | 34 | 1.7 | 7.0 | 0.00 | 0.00 | 0.00 | 81 | 1010.8 |
| 20260506014501 | 50 | 34 | 2.6 | 8.7 | 0.00 | 0.00 | 0.00 | 81 | 1010.5 |
| 20260506013059 | 51 | 24 | 2.6 | 9.6 | 0.00 | 0.00 | 0.00 | 79 | 1010.6 |
| 20260506011606 | 51 | 57 | 1.7 | 7.0 | 0.00 | 0.00 | 0.00 | 77 | 1010.3 |
| 20260506010056 | 51 | 30 | 1.7 | 7.8 | 0.00 | 0.00 | 0.00 | 76 | 1009.9 |
| 20260506004550 | 52 | 65 | 2.6 | 9.6 | 0.00 | 0.00 | 0.00 | 76 | 1009.5 |
| 20260506003047 | 52 | 47 | 1.7 | 5.2 | 0.00 | 0.00 | 0.00 | 77 | 1009.0 |
| 20260506001546 | 52 | 140 | 2.6 | 7.0 | 0.00 | 0.00 | 0.00 | 76 | 1009.1 |
| 20260506000044 | 52 | 349 | 1.7 | 9.6 | 0.00 | 0.00 | 0.00 | 76 | 1008.9 |
| 20260505234547 | 53 | 195 | 1.7 | 7.0 | 0.00 | 0.00 | 0.00 | 76 | 1008.9 |
| 20260505233042 | 53 | 64 | 1.7 | 9.6 | 0.00 | 0.00 | 0.00 | 76 | 1008.9 |
| 20260505231546 | 53 | 360 | 2.6 | 9.6 | 0.00 | 0.00 | 0.00 | 76 | 1009.0 |
| 20260505230035 | 54 | 36 | 1.7 | 4.3 | 0.00 | 0.00 | 0.00 | 76 | 1008.7 |
| 20260505224534 | 54 | 32 | 2.6 | 9.6 | 0.00 | 0.00 | 0.00 | 76 | 1008.5 |
| 20260505223036 | 54 | 36 | 1.7 | 5.2 | 0.00 | 0.00 | 0.00 | 76 | 1008.5 |
| 20260505221531 | 54 | 43 | 1.7 | 7.8 | 0.00 | 0.00 | 0.00 | 77 | 1008.4 |
| 20260505220035 | 55 | 62 | 2.6 | 8.7 | 0.00 | 0.00 | 0.00 | 77 | 1007.9 |
| 20260505214535 | 55 | 18 | 3.5 | 8.7 | 0.00 | 0.00 | 0.00 | 77 | 1007.3 |
| 20260505213026 | 55 | 22 | 1.7 | 7.0 | 0.00 | 0.00 | 0.00 | 78 | 1007.6 |
| 20260505211525 | 55 | 80 | 0.9 | 8.7 | 0.00 | 0.00 | 0.00 | 80 | 1007.8 |
| 20260505210026 | 55 | 9 | 2.6 | 7.8 | 0.00 | 0.00 | 0.00 | 80 | 1007.2 |
| 20260505204518 | 55 | 18 | 2.6 | 7.8 | 0.00 | 0.00 | 0.00 | 81 | 1007.2 |
| 20260505203016 | 56 | 40 | 2.6 | 8.7 | 0.00 | 0.00 | 0.00 | 80 | 1006.8 |